Volver al catálogo

LRE

ActivoCienciaHEO
NORAD 26898·PAYLOAD·🇯🇵 Japan

Lanzado Aug 29, 2001 desde Tanegashima Space Center

Loading…

Próximos Pases (próximas 24 horas)

TLE

ActualizadoSource: Space-Track

Época: Sep 13, 2026, 12:39 UTC

1 26898U 01038A   26256.52772725  .00001675  00000-0  19571-3 0  9998
2 26898  28.5153  61.5034 6998397 355.8803   0.4113  2.66575177223092

Sigue LRE en tiempo real con AllMySat

Download on the App Store